Location: Unspecified
(0.0000°N, 0.0000°E)
Time: 04:56:07
(UTC+00:00)

Transit 2A - Pass Details

Date: 31 May 2019
Orbit: 593 x 966 km, 66.7° (Epoch: 26 June)

Event Time Altitude Azimuth Distance (km) Brightness Sun altitude
Rises 16:42:49 0° 317° (NW) 3,138 10.4 17.3°
Reaches altitude 10° 16:45:43 10° 302° (WNW) 2,151 10.6 16.7°
Maximum altitude 16:49:26 22° 252° (WSW) 1,430 8.4 15.8°
Drops below altitude 10° 16:52:57 10° 200° (SSW) 2,012 8.2 15.0°
Sets 16:55:34 0° 185° (S) 2,881 8.8 14.4°
